#timestamp,LO_Frequency,Hit,StdDev 
1589166015.8,286046998.7,N
1589166035.6,286046999.2,N
1589166055.4,286046998.4,N
1589166075.3,286047001.2,N
1589166095.1,286046998.1,N
1589166115.9,286046998.3,N
1589166135.7,286047000.8,N
1589166155.5,286047001.1,N
1589166175.4,286046998.1,N
1589166195.2,286047000.5,N
1589166215.1,286047000.0,N
1589166216.0,286047000.0,N
1589166235.8,286047000.1,N
1589166255.6,286046999.8,N
1589166275.5,286047002.4,N
1589166295.3,286047000.0,N
1589166315.1,286047000.2,N
1589166335.9,286047001.8,N
1589166355.7,286047001.6,N
1589166375.6,286047002.0,N
1589166395.4,286047002.5,N
1589166415.2,286047001.8,N
1589166435.1,286047001.5,N
1589166436.0,286047001.5,N
1589166455.8,286047001.6,N
1589166475.7,286047002.3,N
1589166495.5,286046999.7,N
1589166515.3,286047000.1,N
1589166535.2,286047000.1,N
1589166555.0,286047001.7,N
1589166555.9,286047001.7,N
1589166575.8,286047002.1,N
1589166595.6,286047002.3,N
1589166615.4,286046999.8,N
1589166635.3,286047000.5,N
1589166655.1,286047001.0,N
1589166675.9,286046996.9,N
1589166695.7,286046999.0,N
1589166715.5,286047002.8,N
1589166735.4,286047002.0,N
1589166755.2,286047000.6,N
1589166775.0,286046999.8,N
1589166775.9,286046999.8,N
1589166795.8,286047002.7,N
1589166815.6,286047001.6,N
1589166835.5,286047004.3,Y
1589166855.3,286047002.1,P
1589166875.1,286046999.8,N
1589166895.9,286046998.2,N
1589166915.7,286046996.5,N
1589166935.6,286046997.0,N
1589166955.4,286046998.2,N
1589166975.2,286046998.7,N
1589166995.1,286047000.8,N
1589166996.0,286047000.8,N
1589167015.8,286046999.6,N
1589167035.6,286046995.4,N
1589167055.5,286046998.0,N
1589167075.3,286046995.3,N
1589167095.2,286046995.5,N
1589167115.9,286046996.6,N
1589167135.7,286046998.0,N
1589167155.6,286046999.6,N
1589167175.4,286046997.9,N
1589167195.2,286046995.0,N
1589167215.1,286046995.3,N
1589167216.0,286046995.3,N
1589167235.8,286046995.5,N
1589167255.7,286046997.4,N
1589167275.5,286046999.4,N
1589167295.3,286046997.2,N
1589167315.2,286046997.6,N
1589167335.0,286046996.5,N
1589167335.9,286046996.5,N
1589167355.8,286046995.4,N
1589167375.6,286046997.6,N
1589167395.4,286046997.6,N
1589167415.3,286046995.6,N
1589167435.1,286046994.9,Y
1589167455.9,286046998.8,P
1589167475.7,286046998.7,N
1589167495.5,286046999.3,N
1589167515.4,286046999.2,N
1589167535.2,286047000.3,N
1589167555.0,286047000.8,N
1589167555.9,286047000.8,N
1589167575.8,286046998.7,N
1589167595.6,286047000.0,N
1589167615.5,286047000.8,N
1589167635.3,286047000.6,N
1589167655.1,286047000.3,N
1589167675.9,286047001.0,N
1589167695.7,286046999.3,N
1589167715.5,286046997.1,N
1589167735.4,286047000.2,N
1589167755.2,286047001.9,N
1589167775.1,286047002.8,N
1589167776.0,286047002.8,N
1589167795.8,286047000.5,N
1589167815.6,286047000.8,N
1589167835.5,286046998.5,N
1589167855.3,286047000.8,N
1589167875.2,286047000.3,N
1589167895.9,286047000.4,N
1589167915.7,286047000.2,N
1589167935.6,286047000.4,N
1589167955.4,286046999.9,N
1589167975.2,286047001.1,N
1589167995.1,286047000.6,N
1589167996.0,286047000.6,N
1589168015.8,286047000.6,N
1589168035.7,286046998.8,N
1589168055.5,286046999.9,N
1589168075.3,286047001.7,N
1589168095.2,286047004.4,Y
1589168115.0,286047002.7,P
1589168115.9,286047002.7,N
1589168135.8,286047002.5,N
1589168155.6,286047002.6,N
1589168175.4,286047002.7,N
1589168195.3,286047000.3,N
1589168215.1,286047002.5,N
1589168235.8,286047002.2,N
1589168255.7,286047001.8,N
1589168275.5,286046999.8,N
1589168295.4,286047002.7,N
1589168315.2,286046999.9,N
1589168335.0,286047000.3,N
1589168335.9,286047000.3,N
1589168355.8,286047000.3,N
1589168375.6,286046998.5,N
1589168395.4,286046998.7,N
1589168415.3,286047000.9,N
1589168435.1,286047000.2,N
1589168455.9,286047001.5,N
1589168475.7,286047003.9,N
1589168495.6,286047003.1,N
1589168515.4,286047002.0,N
1589168535.3,286047001.3,N
1589168555.1,286047002.0,N
1589168556.0,286047002.0,N
1589168575.8,286047002.5,N
1589168595.7,286047000.3,N
1589168615.5,286047002.3,N
1589168635.4,286047001.3,N
1589168655.2,286047002.5,N
1589168675.0,286047002.6,N
1589168675.9,286047002.6,N
1589168695.8,286046998.3,N
1589168715.6,286047001.0,N
1589168735.5,286047001.2,N
1589168755.3,286047000.3,N
1589168775.1,286047000.8,N
1589168795.9,286047000.0,N
1589168815.7,286047000.7,N
1589168835.5,286047000.0,N
1589168855.4,286047000.4,N
1589168875.2,286047000.6,N
1589168895.1,286047000.7,N
1589168896.0,286047000.7,N
1589168915.8,286046998.2,N
1589168935.6,286047000.3,N
1589168955.5,286047002.5,N
1589168975.3,286046998.5,N
1589168995.2,286047001.9,N
1589169015.9,286047000.0,N
1589169035.7,286047002.2,N
1589169055.6,286046998.5,N
1589169075.4,286047000.3,N
1589169095.2,286047001.1,N
1589169115.1,286047001.0,N
1589169116.0,286047001.0,N
1589169135.8,286046998.7,N
1589169155.7,286046999.9,N
1589169175.5,286047001.6,N
1589169195.3,286047000.5,N
1589169215.2,286047002.7,N
1589169235.0,286046999.7,N
1589169235.9,286046999.7,N
1589169255.8,286047000.6,N
1589169275.6,286047000.4,N
1589169295.4,286047000.3,N
1589169315.3,286047001.3,N
1589169335.1,286047001.9,N
1589169355.9,286047001.4,N
1589169375.7,286047003.1,N
1589169395.5,286047005.3,Y
1589169415.4,286047001.3,P
1589169435.2,286047002.6,P
1589169455.0,286047000.9,N
1589169456.0,286047000.9,N
1589169475.8,286047000.5,N
1589169495.6,286047001.1,N
1589169515.5,286046999.7,N
1589169535.3,286047004.2,Y
1589169555.1,286047004.0,P
1589169575.9,286047001.7,N
1589169595.7,286047001.5,N
